GFSMA_850_dewp_192.txt.gz
Dewpoint
-14 -16 -17 -19 -22 -23 -23 -25 -26 -26 -27 -27 -27 -27 -27 -25 -18 -1 -15 -15 -13 -13 -14 -16 -18 -18 -18 -17 -11 -8 -8 -5 -1 6 10 10 10 10 11 10 8 6 5
-16 -17 -18 -21 -22 -23 -24 -25 -26 -26 -26 -26 -26 -26 -25 -21 -22 -13 -5 -13 -16 -17 -16 -17 -17 -17 -18 -18 -8 -1 -4 -10 -8 -6 -0 9 10 10 10 10 10 8 7
-17 -17 -20 -21 -22 -23 -24 -25 -25 -25 -25 -25 -25 -24 -21 -22 -21 -19 -11 -10 -9 -18 -22 -23 -24 -24 -23 -20 -6 2 -1 -11 -10 -10 -5 -4 6 10 10 10 11 9 9
-16 -18 -20 -21 -22 -23 -24 -25 -24 -24 -23 -20 -21 -13 -15 -14 -19 -17 -15 -16 -18 -13 -15 -23 -25 -25 -24 -22 -13 -10 -11 -17 -15 -12 -10 -11 -8 -2 8 10 10 10 9
-17 -19 -19 -21 -22 -24 -24 -24 -23 -22 -21 -13 -15 -13 -10 -6 -8 -10 -17 -17 -21 -22 -18 -22 -25 -24 -24 -24 -22 -22 -20 -20 -20 -20 -18 -15 -11 -9 -1 7 8 9 9
-18 -19 -20 -21 -22 -23 -23 -23 -23 -24 -24 -15 -10 -8 -7 -9 -9 -12 -14 -16 -25 -29 -31 -30 -14 -10 -23 -24 -24 -24 -23 -22 -21 -22 -21 -20 -18 -11 -9 -0 7 8 9
-18 -19 -20 -21 -21 -22 -22 -22 -23 -23 -24 -23 -5 -3 -6 -10 -15 -13 -11 -12 -15 -17 -31 -29 -17 -11 -6 -27 -28 -25 -24 -22 -22 -21 -20 -21 -20 -13 -10 -9 2 7 8
-18 -18 -19 -20 -20 -21 -21 -21 -22 -23 -25 -26 -7 -7 -6 -4 -6 -8 -11 -17 -29 -17 -16 -22 -29 -23 -11 -13 -30 -32 -33 -33 -31 -27 -24 -21 -17 -13 -13 -10 -8 3 7
-17 -18 -18 -18 -19 -19 -20 -21 -22 -23 -22 -26 -28 -10 -10 -11 -10 -6 -11 -12 -23 -16 -14 -11 -17 -14 -20 -17 -31 -35 -37 -38 -38 -37 -34 -26 -20 -13 -17 -17 -10 -8 -2
-16 -17 -17 -18 -18 -18 -19 -20 -22 -23 -23 -21 -28 -31 -30 -18 -12 -10 -8 -9 -12 -11 -21 -11 -9 -11 -19 -18 -25 -33 -37 -38 -39 -39 -39 -37 -34 -27 -19 -18 -18 -10 -8
-15 -16 -16 -17 -17 -18 -18 -20 -21 -24 -26 -27 -25 -27 -30 -29 -34 -12 -14 -11 -11 -9 -13 -11 -16 -15 -13 -15 -20 -33 -38 -39 -39 -39 -39 -39 -39 -37 -26 -23 -23 -19 -14
-14 -15 -16 -16 -17 -17 -18 -20 -22 -24 -26 -30 -32 -29 -10 -9 -10 -11 -12 -11 -11 -9 -10 -9 -9 -11 -11 -13 -20 -37 -38 -39 -39 -39 -40 -40 -40 -40 -39 -30 -21 -26 -20
-14 -14 -15 -15 -16 -17 -18 -20 -22 -25 -28 -30 -30 -20 -22 -15 -12 -9 -10 -10 -10 -11 -9 -9 -11 -10 -11 -14 -18 -36 -38 -37 -39 -40 -40 -40 -40 -40 -39 -38 -25 -18 -33
-13 -13 -14 -15 -15 -16 -18 -20 -23 -25 -29 -31 -32 -21 -15 -17 -12 -16 -11 -9 -10 -13 -13 -11 -10 -10 -10 -15 -27 -35 -19 -24 -38 -39 -39 -39 -39 -39 -39 -39 -37 -29 -31
-10 -12 -13 -14 -15 -16 -17 -21 -23 -26 -28 -30 -28 -31 -12 -11 -13 -11 -11 -11 -11 -10 -13 -12 -11 -11 -12 -15 -15 -20 -16 -18 -36 -36 -38 -38 -37 -39 -39 -39 -38 -36 -33
-11 -12 -12 -13 -12 -15 -18 -20 -23 -26 -26 -26 -20 -22 -15 -13 -19 -16 -11 -11 -11 -12 -11 -12 -13 -12 -12 -13 -14 -16 -15 -22 -13 -22 -35 -36 -36 -35 -37 -38 -39 -37 -32
-10 -11 -11 -8 -12 -16 -18 -19 -22 -24 -24 -24 -24 -20 -22 -28 -15 -12 -12 -12 -12 -11 -11 -13 -14 -13 -12 -12 -13 -13 -13 -13 -15 -16 -28 -35 -36 -34 -35 -32 -32 -34 -30
-9 -7 -6 -10 -13 -15 -16 -17 -20 -22 -19 -16 -20 -16 -20 -30 -18 -12 -12 -11 -11 -12 -13 -13 -13 -14 -14 -14 -14 -13 -14 -15 -15 -15 -19 -33 -35 -33 -30 -31 -30 -29 -31
-3 -5 -7 -11 -13 -14 -14 -15 -19 -21 -19 -20 -23 -16 -22 -26 -12 -12 -15 -12 -12 -13 -12 -13 -14 -15 -16 -15 -14 -14 -15 -15 -16 -15 -15 -16 -16 -23 -22 -26 -28 -26 -25
-3 -3 -8 -10 -12 -13 -15 -17 -18 -19 -20 -25 -30 -32 -28 -23 -12 -21 -13 -12 -12 -12 -13 -14 -15 -16 -16 -15 -14 -16 -17 -15 -15 -15 -14 -14 -15 -14 -14 -13 -17 -15 -20
-1 -4 -7 -9 -12 -13 -15 -16 -14 -13 -19 -26 -30 -31 -31 -29 -34 -34 -26 -12 -11 -11 -13 -15 -16 -16 -16 -15 -16 -16 -15 -15 -14 -14 -14 -15 -15 -15 -14 -14 -13 -13 -16
-3 -5 -7 -8 -11 -12 -15 -16 -15 -16 -20 -25 -26 -29 -28 -32 -30 -32 -31 -28 -28 -26 -27 -14 -15 -15 -14 -15 -15 -15 -15 -14 -15 -15 -15 -16 -15 -14 -14 -14 -14 -17 -16
-4 -5 -6 -7 -7 -10 -8 -13 -14 -16 -19 -23 -26 -25 -26 -27 -29 -26 -16 -18 -17 -25 -30 -29 -15 -13 -13 -14 -15 -14 -14 -15 -15 -15 -15 -15 -14 -14 -14 -14 -12 -15 -19
-4 -5 -5 -6 -7 -8 -10 -12 -12 -14 -16 -23 -27 -29 -26 -21 -22 -26 -16 -13 -14 -14 -16 -24 -14 -14 -15 -16 -15 -15 -15 -15 -14 -14 -14 -14 -14 -14 -13 -13 -13 -14 -12
-4 -4 -5 -7 -8 -8 -9 -11 -12 -14 -14 -14 -14 -22 -24 -20 -22 -27 -26 -14 -13 -14 -16 -15 -20 -26 -26 -25 -20 -16 -15 -15 -16 -16 -15 -15 -15 -15 -15 -15 -14 -14 -13
-4 -6 -7 -7 -8 -9 -9 -11 -13 -13 -14 -14 -13 -13 -20 -23 -25 -28 -29 -18 -15 -15 -15 -15 -19 -16 -16 -16 -16 -16 -16 -15 -16 -16 -16 -16 -15 -15 -15 -16 -14 -14 -13

GFSMA_850_dewp_198.txt.gz
Dewpoint
-12 -9 -5 -9 -6 -11 -17 -15 -19 -22 -24 -21 -12 -12 -5 1 -1 -4 -8 -14 -19 -21 -24 -25 -24 -2 -0 -6 -22 -25 -26 -27 -28 -28 -27 -25 -20 -11 1 6 9 10 11
-10 -9 -10 -9 -8 -11 -11 -12 -17 -19 -18 -21 -17 -6 -2 -3 -0 -5 -8 -11 -15 -20 -23 -24 -25 -16 -5 -20 -23 -25 -25 -25 -25 -26 -27 -28 -28 -26 -20 -7 5 8 9
-9 -11 -13 -14 -14 -15 -16 -17 -15 -14 -15 -7 -14 -12 -9 -8 -10 -5 -7 -9 -12 -16 -19 -25 -26 -25 -24 -24 -25 -26 -26 -26 -25 -25 -26 -26 -26 -27 -28 -23 -17 -6 4
-9 -12 -14 -13 -14 -17 -21 -22 -19 -10 -6 -4 -3 -3 -2 -8 -12 -11 -10 -7 -10 -10 -18 -27 -28 -27 -28 -28 -29 -29 -29 -29 -28 -28 -27 -27 -27 -27 -26 -27 -26 -18 -13
-11 -13 -13 -14 -15 -19 -18 -17 -8 -7 -5 -3 -2 -3 -2 -4 -5 -6 -13 -16 -18 -12 -21 -27 -28 -19 -22 -26 -33 -34 -33 -34 -34 -35 -35 -34 -32 -29 -28 -26 -26 -25 -19
-11 -14 -14 -14 -16 -18 -18 -18 -14 -5 -7 -4 -3 -3 -3 -3 -4 -7 -10 -9 -16 -20 -21 -25 -15 -15 -11 -23 -32 -36 -36 -36 -36 -36 -36 -36 -36 -36 -36 -34 -29 -25 -24
-12 -14 -14 -14 -18 -17 -17 -18 -18 -13 -4 -5 -6 -5 -5 -8 -8 -7 -7 -8 -11 -16 -20 -21 -8 -9 -8 -17 -32 -35 -36 -36 -36 -36 -36 -36 -37 -37 -36 -35 -36 -34 -27
-13 -14 -14 -15 -18 -17 -18 -18 -18 -17 -13 -8 -5 -2 -1 -1 -1 -7 -6 -9 -13 -13 -12 -18 -21 -15 -11 -21 -28 -32 -34 -35 -35 -35 -35 -35 -35 -35 -34 -33 -35 -36 -35
-13 -15 -15 -16 -18 -17 -15 -18 -17 -14 -15 -14 -4 -3 -4 -3 -1 -3 -6 -8 -13 -14 -12 -12 -17 -18 -18 -17 -22 -26 -34 -35 -35 -35 -35 -35 -34 -35 -35 -34 -32 -32 -34
-12 -14 -15 -15 -17 -17 -16 -19 -17 -12 -9 -17 -13 -7 -5 -4 -6 -3 -4 -5 -8 -14 -14 -10 -9 -10 -13 -14 -21 -24 -29 -35 -34 -34 -34 -34 -34 -34 -35 -35 -35 -34 -35
-10 -14 -14 -15 -16 -16 -17 -18 -18 -15 -8 -10 -19 -22 -22 -20 -13 -8 -5 -5 -6 -9 -9 -11 -9 -8 -9 -11 -15 -20 -28 -32 -32 -34 -34 -35 -35 -35 -35 -36 -36 -35 -35
-8 -12 -14 -14 -15 -15 -16 -16 -17 -17 -13 -8 -8 -9 -12 -13 -12 -18 -13 -8 -7 -7 -7 -9 -9 -7 -8 -9 -16 -20 -25 -31 -31 -32 -34 -35 -36 -35 -35 -35 -36 -36 -37
-6 -10 -13 -12 -14 -14 -15 -15 -17 -19 -19 -15 -15 -15 -13 -12 -11 -12 -12 -9 -9 -8 -8 -9 -9 -9 -8 -8 -12 -17 -19 -27 -29 -30 -32 -31 -34 -35 -36 -36 -36 -37 -38
-3 -8 -9 -9 -12 -13 -12 -14 -17 -18 -19 -20 -20 -19 -20 -23 -23 -21 -16 -15 -9 -9 -9 -9 -8 -9 -9 -10 -13 -15 -17 -20 -26 -29 -28 -28 -30 -32 -34 -36 -37 -37 -38
-1 -3 -7 -7 -8 -9 -11 -13 -15 -17 -18 -19 -19 -19 -20 -22 -25 -22 -19 -18 -11 -8 -9 -8 -9 -9 -10 -11 -13 -15 -16 -21 -21 -21 -24 -25 -26 -28 -31 -33 -35 -37 -38
-0 -1 -2 -4 -5 -6 -10 -11 -14 -15 -16 -18 -20 -20 -18 -26 -24 -21 -24 -24 -16 -11 -8 -10 -10 -10 -10 -13 -13 -12 -18 -21 -21 -16 -17 -19 -21 -25 -27 -30 -33 -35 -36
0 -0 -1 -3 -5 -6 -8 -10 -13 -14 -17 -18 -19 -20 -19 -25 -21 -22 -25 -24 -14 -11 -11 -14 -10 -11 -11 -11 -13 -17 -19 -18 -17 -16 -16 -18 -18 -20 -22 -22 -26 -29 -31
-0 -1 -1 -2 -3 -3 -6 -11 -13 -15 -18 -17 -18 -18 -24 -24 -21 -16 -16 -12 -11 -10 -10 -11 -12 -12 -11 -12 -13 -13 -15 -16 -17 -20 -17 -16 -16 -18 -18 -18 -18 -21 -22
-0 -1 -1 -2 -2 -4 -9 -11 -13 -15 -14 -12 -18 -24 -23 -25 -26 -13 -12 -11 -10 -11 -11 -11 -11 -11 -13 -13 -14 -14 -13 -14 -14 -17 -17 -19 -17 -15 -14 -14 -17 -15 -14
-1 -1 -2 -2 -4 -7 -10 -11 -14 -10 -3 -10 -11 -23 -19 -12 -17 -9 -10 -11 -11 -11 -11 -11 -11 -12 -14 -14 -14 -13 -13 -15 -17 -21 -25 -20 -16 -15 -15 -20 -14 -12 -12
-0 -1 -2 -3 -5 -6 -7 -10 -7 -6 -6 -9 -18 -16 -5 -8 -22 -18 -16 -17 -15 -12 -12 -10 -12 -13 -14 -14 -14 -13 -13 -16 -23 -27 -18 -15 -21 -23 -23 -18 -18 -13 -14
-0 -1 -2 -4 -6 -5 -5 -5 -4 -5 -7 -9 -9 -4 -8 -27 -28 -29 -22 -29 -31 -26 -31 -26 -27 -22 -22 -17 -13 -13 -15 -21 -21 -24 -20 -24 -24 -16 -16 -14 -16 -15 -12
-0 -1 -2 -4 -4 -4 -4 -3 -4 -10 -7 -5 -5 -11 -24 -25 -29 -31 -32 -32 -33 -32 -28 -25 -27 -26 -21 -18 -16 -19 -23 -21 -19 -20 -15 -16 -18 -14 -14 -15 -14 -12 -15
-0 -1 -2 -4 -4 -4 -3 -5 -6 -5 -6 -6 -12 -9 -13 -18 -22 -26 -28 -30 -30 -24 -22 -18 -22 -21 -22 -22 -21 -20 -18 -17 -17 -15 -14 -14 -18 -16 -14 -15 -20 -25 -23
-2 -2 -3 -4 -4 -4 -5 -6 -5 -7 -7 -8 -9 -15 -16 -15 -20 -23 -26 -29 -30 -27 -18 -16 -16 -18 -25 -23 -16 -14 -15 -15 -15 -14 -14 -16 -16 -16 -17 -20 -24 -20 -14
-2 -4 -4 -4 -4 -5 -6 -6 -7 -7 -8 -8 -9 -11 -18 -17 -18 -22 -26 -28 -31 -26 -27 -19 -19 -29 -19 -15 -14 -14 -13 -14 -14 -15 -15 -17 -17 -17 -16 -18 -18 -21 -20

GFSMA_850_dewp_201.txt.gz
Dewpoint
-5 -11 -12 -13 -14 -15 -15 -17 -17 -21 -23 -23 -18 -13 -11 -5 -5 -10 -12 -19 -23 -24 -25 -21 3 0 -18 -23 -25 -25 -25 -25 -25 -25 -26 -27 -28 -28 -24 -17 -3 2 8
-2 -9 -11 -11 -14 -12 -16 -16 -18 -19 -22 -22 -18 -8 -11 -7 -9 -10 -14 -16 -21 -23 -24 -23 -8 -15 -23 -25 -26 -26 -26 -26 -26 -26 -26 -26 -26 -27 -28 -28 -23 -11 2
-3 -12 -10 -10 -12 -11 -15 -15 -16 -17 -16 -18 -18 -12 -8 -11 -10 -11 -15 -17 -20 -22 -21 -26 -27 -27 -27 -28 -28 -30 -29 -30 -30 -28 -28 -27 -27 -27 -26 -27 -28 -28 -21
-4 -11 -9 -10 -11 -13 -14 -15 -16 -15 -17 -14 -13 -11 -9 -9 -13 -16 -15 -18 -19 -20 -19 -25 -27 -26 -28 -30 -33 -32 -31 -32 -33 -32 -33 -33 -33 -32 -31 -29 -27 -27 -27
-7 -9 -10 -12 -13 -14 -15 -17 -18 -16 -10 -5 -6 -5 -4 -6 -10 -10 -14 -18 -19 -18 -19 -22 -22 -24 -29 -26 -32 -35 -33 -32 -26 -31 -33 -35 -35 -35 -35 -35 -34 -32 -28
-6 -8 -10 -12 -13 -13 -17 -18 -15 -7 -6 -3 -3 -3 -3 -4 -6 -6 -13 -13 -16 -22 -21 -19 -15 -19 -28 -31 -33 -36 -35 -34 -30 -27 -32 -33 -34 -34 -33 -33 -34 -34 -35
-5 -7 -10 -12 -13 -14 -17 -15 -10 -6 -4 -3 -2 -3 -3 -3 -4 -7 -10 -10 -13 -14 -17 -21 -15 -17 -24 -33 -32 -34 -34 -34 -34 -34 -33 -34 -34 -34 -34 -33 -31 -30 -31
-5 -8 -10 -12 -13 -14 -16 -15 -14 -9 -5 -4 -4 -4 -3 -3 -3 -5 -7 -8 -11 -15 -16 -12 -14 -15 -20 -28 -31 -30 -33 -34 -34 -34 -34 -34 -34 -34 -34 -32 -33 -27 -30
-5 -8 -11 -12 -12 -14 -15 -16 -15 -14 -9 -4 -6 -7 -1 -2 -2 -3 -5 -6 -9 -14 -14 -13 -13 -13 -18 -24 -26 -27 -31 -33 -33 -33 -33 -34 -34 -34 -34 -34 -34 -26 -29
-5 -8 -11 -12 -12 -14 -15 -15 -14 -16 -15 -12 -9 -4 -4 -3 -2 -3 -5 -5 -6 -8 -12 -15 -14 -14 -15 -21 -23 -24 -28 -32 -32 -32 -33 -33 -33 -34 -34 -34 -34 -30 -30
-4 -7 -10 -10 -11 -15 -15 -13 -12 -16 -14 -12 -11 -5 -4 -3 -4 -5 -3 -4 -5 -7 -8 -10 -12 -14 -15 -20 -19 -20 -28 -30 -30 -31 -32 -32 -32 -33 -33 -33 -34 -30 -26
-2 -5 -7 -8 -9 -13 -13 -12 -11 -12 -12 -12 -10 -12 -11 -8 -6 -7 -7 -5 -5 -8 -7 -8 -9 -12 -14 -17 -18 -18 -25 -28 -29 -29 -30 -30 -30 -31 -32 -33 -33 -34 -34
-0 -3 -5 -5 -6 -9 -10 -11 -12 -10 -7 -9 -8 -14 -15 -19 -20 -20 -13 -7 -6 -7 -7 -8 -9 -9 -11 -12 -13 -17 -22 -27 -26 -28 -27 -27 -27 -27 -30 -31 -32 -33 -34
2 -0 -3 -5 -3 -4 -5 -6 -6 -8 -6 -6 -7 -8 -10 -12 -12 -12 -13 -9 -8 -7 -7 -9 -8 -8 -9 -9 -11 -13 -19 -21 -22 -25 -25 -25 -23 -24 -28 -28 -29 -30 -32
3 1 -1 -2 -3 -5 -4 -5 -5 -9 -10 -8 -8 -10 -13 -14 -16 -19 -21 -20 -14 -11 -8 -8 -8 -8 -9 -10 -10 -12 -17 -18 -20 -23 -22 -22 -19 -24 -28 -29 -28 -28 -29
3 2 1 -1 -3 -3 -4 -5 -7 -8 -10 -10 -11 -12 -12 -17 -20 -23 -25 -25 -26 -18 -8 -8 -9 -9 -10 -11 -11 -14 -16 -17 -18 -18 -18 -16 -17 -23 -26 -28 -27 -27 -26
2 2 2 2 0 -2 -5 -3 0 -1 -7 -8 -8 -9 -16 -18 -20 -19 -12 -25 -24 -22 -13 -9 -9 -10 -11 -11 -12 -13 -15 -16 -19 -17 -16 -18 -20 -24 -26 -25 -23 -22 -22
2 2 1 1 -0 -1 1 -0 -1 -5 -2 -5 -6 -13 -17 -18 -14 -16 -21 -19 -22 -19 -16 -15 -14 -12 -12 -12 -12 -13 -14 -15 -18 -19 -20 -21 -23 -24 -27 -24 -23 -19 -22
2 2 1 1 1 -0 -2 -3 -1 0 -2 -4 -13 -16 -16 -10 -6 -18 -17 -17 -7 -16 -13 -14 -15 -15 -12 -12 -13 -14 -14 -16 -19 -22 -22 -25 -30 -31 -28 -26 -20 -21 -23
3 2 1 1 -0 -1 -2 -2 -1 -0 -2 -8 -14 -14 -12 -7 -10 -16 -14 -8 -15 -15 -15 -15 -16 -14 -14 -14 -14 -15 -17 -17 -21 -23 -25 -30 -30 -29 -26 -21 -23 -23 -20
2 1 1 0 -0 -1 -2 -2 -2 -7 -11 -13 -12 -10 -10 -4 -7 -7 -3 -7 -14 -14 -16 -17 -15 -15 -14 -15 -16 -20 -22 -24 -26 -28 -28 -29 -29 -27 -26 -23 -21 -17 -19
2 1 1 0 -0 -1 -2 -2 -7 -10 -13 -8 -3 -4 -4 -6 -3 -3 -12 -16 -17 -16 -18 -18 -17 -19 -23 -25 -26 -26 -23 -26 -26 -29 -24 -28 -27 -24 -21 -19 -19 -17 -22
2 1 0 -0 -1 -1 -2 -3 -8 -12 -8 -2 -4 -5 -6 -4 -4 -9 -19 -24 -28 -30 -34 -33 -31 -28 -27 -25 -25 -27 -27 -26 -24 -22 -19 -22 -24 -22 -21 -20 -22 -25 -27
2 1 -0 -1 -1 -1 -3 -4 -5 -3 -3 -6 -5 -5 -5 -7 -11 -9 -7 -13 -25 -28 -28 -28 -27 -26 -26 -25 -28 -27 -23 -20 -19 -20 -17 -17 -21 -20 -20 -23 -26 -25 -19
2 1 -0 -1 -1 -2 -3 -4 -3 -4 -6 -6 -6 -6 -7 -7 -7 -7 -9 -23 -26 -29 -31 -31 -30 -26 -22 -27 -25 -16 -17 -15 -15 -15 -16 -15 -17 -18 -19 -21 -21 -22 -22
2 1 -0 -1 -2 -3 -4 -4 -5 -6 -6 -7 -7 -8 -9 -8 -8 -14 -18 -22 -28 -31 -32 -29 -24 -23 -27 -23 -16 -15 -14 -14 -13 -14 -15 -15 -17 -17 -17 -18 -18 -18 -20

GFSMA_850_dewp_207.txt.gz
Dewpoint
8 8 6 -1 -8 -13 -14 -16 -18 -17 -15 -12 -10 -9 -10 -10 -8 -9 -16 -22 -25 -10 -0 -11 -22 -25 -27 -28 -28 -27 -27 -27 -28 -28 -28 -27 -27 -27 -27 -28 -28 -26 -19
9 8 5 -2 -8 -13 -15 -17 -18 -17 -14 -11 -9 -10 -9 -9 -8 -12 -16 -21 -25 -19 -5 -18 -22 -26 -28 -29 -29 -29 -29 -30 -30 -31 -31 -31 -30 -30 -29 -28 -27 -27 -28
10 8 7 -2 -11 -13 -16 -17 -15 -13 -13 -12 -9 -10 -8 -8 -8 -12 -16 -20 -23 -24 -24 -23 -27 -26 -27 -28 -30 -29 -30 -30 -32 -32 -33 -33 -33 -33 -33 -33 -32 -30 -29
11 10 8 1 -11 -14 -14 -12 -12 -12 -16 -14 -14 -11 -7 -6 -9 -11 -15 -18 -21 -22 -24 -27 -28 -28 -26 -24 -20 -18 -25 -30 -32 -33 -34 -35 -34 -34 -34 -34 -34 -34 -34
11 10 7 -4 -13 -14 -12 -9 -10 -12 -15 -13 -11 -9 -7 -7 -8 -11 -15 -17 -20 -21 -23 -27 -29 -28 -27 -26 -22 -15 -16 -25 -30 -32 -33 -33 -33 -33 -33 -33 -33 -33 -33
11 10 8 2 -9 -9 -8 -6 -8 -9 -11 -10 -7 -6 -4 -5 -6 -9 -12 -15 -18 -19 -22 -25 -26 -24 -27 -30 -33 -30 -26 -28 -31 -32 -33 -33 -33 -33 -33 -33 -33 -33 -33
11 11 9 7 3 -5 -7 -6 -6 -7 -7 -6 -6 -3 -3 -3 -5 -7 -7 -12 -16 -17 -20 -23 -23 -23 -25 -28 -30 -31 -33 -32 -32 -32 -33 -33 -33 -33 -33 -33 -33 -33 -34
12 12 10 8 6 -2 -4 -6 -6 -5 -5 -5 -5 -3 -2 -3 -4 -5 -4 -8 -11 -14 -16 -19 -20 -21 -22 -22 -26 -29 -32 -33 -33 -32 -32 -32 -32 -33 -33 -33 -33 -33 -33
12 12 10 10 8 0 -4 -5 -5 -5 -7 -4 -4 -6 -3 -4 -3 -4 -4 -5 -8 -10 -11 -16 -16 -19 -19 -19 -22 -24 -28 -32 -32 -32 -32 -32 -32 -32 -32 -32 -33 -33 -33
12 11 11 10 8 3 -2 -3 -5 -6 -6 -8 -3 -3 -6 -7 -4 -4 -4 -5 -6 -7 -8 -12 -12 -16 -16 -17 -18 -20 -24 -29 -31 -31 -31 -31 -31 -31 -31 -31 -31 -31 -32
12 11 11 10 9 3 0 -2 -4 -5 -7 -8 -6 -3 -4 -5 -6 -5 -4 -5 -6 -6 -6 -8 -10 -13 -14 -15 -15 -17 -21 -26 -29 -30 -29 -30 -29 -29 -29 -29 -29 -29 -30
12 11 10 9 8 6 2 -2 -4 -5 -7 -5 -4 -4 -3 -4 -4 -4 -5 -5 -6 -6 -7 -7 -9 -10 -10 -11 -14 -15 -18 -21 -26 -27 -28 -28 -28 -27 -27 -28 -28 -29 -29
11 10 9 8 6 5 2 -1 -3 -4 -4 -3 -3 -3 -3 -2 -3 -4 -4 -5 -5 -6 -6 -6 -8 -8 -7 -10 -12 -12 -12 -15 -19 -24 -26 -27 -26 -26 -25 -26 -27 -28 -29
11 10 9 7 6 5 3 1 -1 -3 -3 -2 -2 -2 -2 -2 -3 -2 -3 -5 -5 -5 -6 -6 -7 -5 -7 -9 -9 -10 -10 -12 -14 -19 -23 -25 -25 -25 -25 -26 -26 -27 -28
7 9 7 6 5 4 3 0 -0 -1 -2 -2 -1 -1 -1 -2 -5 -6 -8 -9 -6 -5 -4 -6 -4 -7 -8 -8 -8 -8 -10 -11 -13 -17 -19 -22 -23 -24 -25 -26 -27 -28 -29
6 7 6 5 5 3 2 0 -0 -1 -1 -0 -0 -2 -3 -4 -3 -3 -4 -6 -4 -2 -6 -6 -6 -8 -8 -7 -8 -9 -10 -11 -12 -15 -17 -18 -20 -22 -24 -25 -27 -29 -30
5 5 5 4 5 4 2 1 0 0 0 0 -1 -1 -1 -1 -0 -0 -2 -4 -5 -5 -6 -7 -8 -7 -7 -7 -9 -10 -11 -11 -12 -14 -16 -17 -18 -19 -22 -25 -27 -30 -31
6 5 5 4 4 4 4 3 2 1 1 1 0 0 -0 0 1 -1 -0 -1 -0 -5 -7 -7 -8 -6 -5 -9 -10 -11 -11 -11 -12 -14 -15 -15 -16 -19 -23 -26 -29 -30 -32
4 5 4 4 4 4 4 4 3 3 2 1 0 -0 -0 -0 -1 -1 -0 -1 -3 -12 -12 -6 -1 -6 -9 -10 -11 -11 -12 -12 -13 -14 -14 -15 -19 -24 -27 -29 -30 -32 -33
4 6 6 4 5 4 4 3 3 2 1 1 -0 -0 -1 -1 -1 -0 -1 -1 -11 -4 -2 -4 -7 -9 -10 -11 -10 -12 -12 -13 -13 -14 -15 -19 -26 -28 -29 -30 -32 -32 -30
6 6 5 5 4 4 3 3 2 2 1 0 -0 -1 -1 -1 -1 -1 -2 -8 -10 -6 -5 -6 -8 -6 -5 -6 -10 -12 -13 -13 -14 -18 -25 -27 -28 -29 -29 -30 -29 -28 -28
5 6 5 5 4 3 3 2 2 1 1 -0 -0 -1 -2 -3 -3 -5 -8 -10 -8 -7 -5 -5 -5 -5 -8 -11 -12 -13 -14 -19 -25 -28 -27 -28 -28 -29 -29 -30 -29 -28 -28
4 5 5 5 4 4 3 2 2 1 0 -0 -1 -2 -3 -3 -4 -5 -9 -10 -9 -7 -5 -6 -8 -10 -12 -11 -9 -8 -15 -25 -26 -27 -26 -28 -29 -29 -28 -29 -28 -28 -28
3 5 5 5 4 3 3 2 1 0 -0 -1 -2 -2 -3 -4 -6 -9 -11 -7 -5 -5 -6 -7 -8 -9 -7 -7 -14 -23 -24 -27 -27 -26 -22 -23 -28 -28 -27 -27 -28 -29 -29
3 4 4 4 3 3 2 2 1 -0 -1 -2 -2 -3 -7 -8 -9 -7 -5 -5 -6 -7 -7 -8 -8 -9 -19 -25 -25 -25 -28 -27 -23 -24 -24 -20 -23 -24 -26 -28 -28 -28 -27
4 4 1 3 3 2 2 1 0 -1 -2 -3 -4 -7 -8 -9 -6 -5 -6 -7 -7 -8 -8 -12 -25 -27 -28 -26 -25 -29 -26 -21 -19 -21 -20 -20 -21 -22 -21 -24 -25 -27 -28

GFSMA_850_dewp_213.txt.gz
Dewpoint
6 7 7 8 9 8 5 -5 -11 -15 -16 -15 -12 -6 -5 -5 -7 -8 -3 1 1 -6 -6 -9 -16 -21 -26 -27 -28 -28 -28 -28 -29 -30 -30 -30 -29 -29 -28 -28 -28 -28 -28
7 9 8 8 8 8 5 -5 -12 -15 -16 -15 -11 -6 -3 -5 -6 -8 -9 1 5 -0 -4 -5 -11 -17 -24 -28 -30 -29 -29 -30 -30 -31 -31 -31 -32 -32 -32 -32 -31 -30 -29
7 9 10 9 9 9 5 -4 -12 -15 -15 -11 -8 -5 -3 -3 -5 -7 -12 -2 4 3 -8 -14 -20 -21 -25 -27 -29 -30 -30 -30 -32 -32 -32 -33 -33 -33 -34 -34 -34 -33 -33
8 8 10 10 9 9 7 -2 -11 -14 -13 -9 -6 -4 -3 -3 -4 -7 -12 -7 1 0 -6 -16 -23 -24 -23 -20 -22 -27 -30 -31 -31 -32 -32 -32 -32 -33 -33 -33 -33 -33 -32
8 9 8 9 11 10 8 -0 -10 -14 -12 -8 -5 -3 -3 -3 -3 -8 -12 -12 -7 -6 -7 -19 -23 -24 -20 -13 -12 -15 -22 -29 -30 -31 -32 -33 -32 -33 -32 -32 -33 -32 -32
9 10 10 10 9 10 10 4 -11 -13 -11 -7 -3 -1 -1 -2 -3 -6 -10 -13 -11 -11 -13 -19 -22 -20 -19 -13 -10 -11 -13 -18 -27 -30 -32 -32 -33 -33 -33 -32 -32 -32 -32
9 10 10 10 11 12 10 7 -9 -10 -8 -5 -4 -0 -0 -1 -3 -5 -8 -11 -12 -14 -17 -19 -20 -18 -22 -20 -11 -11 -14 -18 -28 -31 -32 -32 -32 -33 -33 -33 -33 -33 -33
11 11 11 10 10 12 11 9 5 -11 -6 -8 -6 -2 0 -2 -3 -4 -7 -9 -11 -13 -15 -17 -18 -20 -23 -24 -14 -21 -20 -26 -30 -31 -32 -32 -32 -32 -32 -32 -32 -33 -33
13 12 12 11 11 11 12 11 7 4 -11 -4 -7 -5 -0 -1 -1 -3 -5 -7 -9 -11 -12 -15 -16 -16 -20 -21 -23 -27 -30 -31 -31 -31 -31 -31 -31 -31 -31 -31 -31 -31 -31
12 12 12 12 12 12 12 11 9 3 -10 -6 -5 -3 -8 -8 -2 -2 -3 -5 -7 -9 -11 -13 -14 -14 -17 -19 -21 -24 -26 -29 -30 -31 -31 -30 -30 -30 -30 -29 -29 -29 -29
12 12 12 12 12 12 12 12 11 4 -7 -7 -8 -5 -6 -7 -9 -4 -2 -3 -5 -7 -9 -10 -12 -12 -14 -17 -19 -22 -23 -25 -28 -29 -30 -30 -29 -29 -29 -28 -28 -28 -28
11 12 12 11 12 12 12 12 12 9 -5 -7 -7 -6 -5 -7 -8 -7 -5 -3 -3 -3 -7 -8 -9 -10 -12 -14 -17 -19 -22 -23 -25 -27 -27 -28 -28 -28 -28 -27 -27 -27 -27
7 10 9 9 10 10 11 11 8 5 2 1 -3 -4 -5 -6 -9 -8 -8 -4 -2 -3 -4 -6 -7 -8 -10 -12 -12 -15 -18 -20 -20 -21 -23 -25 -26 -27 -26 -26 -26 -27 -27
7 7 7 7 8 9 7 6 7 6 4 2 1 0 -3 -5 -7 -6 -9 -9 -3 -3 -4 -5 -6 -7 -8 -10 -9 -7 -10 -12 -14 -15 -16 -19 -23 -24 -25 -25 -26 -26 -27
5 6 7 6 6 7 7 7 6 5 4 3 2 1 0 -3 -4 -5 -6 -7 -7 -3 -4 -5 -6 -6 -7 -8 -7 -5 -9 -11 -11 -12 -12 -13 -15 -20 -23 -24 -25 -25 -26
3 4 4 4 5 6 6 6 6 5 4 3 2 1 1 -1 -2 -3 -3 -3 -4 -5 -3 -5 -6 -6 -5 -6 -5 -6 -8 -9 -9 -10 -11 -11 -12 -15 -21 -22 -24 -25 -26
2 3 4 4 5 4 4 5 4 4 3 2 2 2 1 2 0 -1 -1 -2 -3 -3 -3 -5 -5 -4 -4 -5 -4 -5 -8 -8 -9 -9 -10 -11 -12 -13 -17 -19 -21 -24 -27
4 3 3 4 3 3 4 4 4 4 4 3 2 1 0 0 0 0 1 0 0 0 -0 -1 -1 -2 -4 -4 -5 -5 -7 -8 -9 -10 -10 -11 -11 -12 -16 -18 -20 -25 -28
3 3 4 4 3 4 3 4 3 3 3 2 1 0 -0 0 0 0 0 1 1 0 1 1 -1 -3 -2 -2 -3 -4 -7 -8 -9 -10 -11 -11 -11 -13 -15 -18 -19 -26 -29
3 4 3 4 4 3 3 3 3 2 2 2 2 1 0 -0 0 0 -0 -1 -0 0 0 -1 -1 -1 -1 -2 -3 -4 -7 -8 -9 -7 -11 -11 -12 -13 -15 -18 -20 -28 -29
1 2 3 4 5 4 3 3 3 1 1 1 1 1 0 0 -0 -1 -1 -1 -0 -0 -1 -1 -1 -2 -3 -3 -4 -5 -7 -8 -5 -10 -11 -11 -12 -14 -16 -17 -24 -28 -29
-3 -4 2 5 3 4 4 4 3 2 1 0 -0 -0 -0 -1 -1 -1 -1 -1 -1 -1 -2 -2 -2 -3 -3 -3 -5 -5 -5 -5 -10 -11 -10 -10 -13 -14 -14 -23 -28 -29 -31
-2 -5 -7 2 4 3 3 3 3 2 2 1 -0 -1 -1 -1 -1 -2 -2 -2 -2 -2 -2 -2 -3 -3 -3 -3 -3 -4 -6 -9 -10 -9 -9 -14 -13 -15 -25 -28 -29 -31 -33
-3 -6 -6 -2 4 4 4 2 2 2 2 1 0 -0 -0 -1 -1 -2 -2 -3 -4 -4 -5 -5 -5 -4 -4 -5 -6 -8 -10 -10 -8 -10 -12 -11 -17 -26 -28 -29 -31 -31 -31
-3 -4 -5 0 3 4 4 2 2 1 1 1 -0 -0 -1 -1 -2 -3 -3 -4 -6 -7 -8 -7 -6 -5 -5 -5 -6 -7 -8 -10 -11 -10 -15 -25 -27 -27 -29 -31 -32 -31 -28
-3 -6 -7 -2 3 3 3 3 2 1 0 0 -0 -1 -1 -2 -2 -3 -4 -5 -7 -9 -9 -7 -6 -6 -7 -8 -9 -9 -9 -9 -16 -20 -26 -24 -26 -26 -26 -30 -29 -30 -29

GFSMA_850_dewp_216.txt.gz
Dewpoint
7 6 7 10 12 11 9 8 7 4 3 3 0 -1 4 5 5 5 7 5 -2 -3 -0 -1 -5 -10 -16 -23 -26 -27 -28 -30 -31 -31 -30 -30 -31 -30 -30 -29 -29 -28 -28
11 11 8 11 12 11 9 8 7 -1 -3 1 -2 1 2 4 4 5 7 6 6 2 -0 -2 -2 -7 -14 -25 -28 -29 -30 -30 -31 -32 -32 -32 -32 -32 -32 -32 -32 -32 -32
6 10 10 7 11 10 9 7 5 3 2 2 -1 -0 3 3 4 5 6 7 6 6 5 -0 -3 -8 -17 -26 -27 -28 -30 -31 -31 -32 -33 -33 -33 -34 -34 -34 -34 -33 -33
10 11 9 8 10 9 8 8 7 3 3 0 3 3 3 3 4 3 5 6 6 5 4 -1 -8 -8 -10 -14 -13 -15 -23 -26 -29 -30 -32 -33 -33 -33 -33 -33 -33 -33 -33
5 8 10 10 9 9 9 9 7 5 2 2 3 3 2 3 4 4 5 6 6 5 4 1 -10 -7 -2 -1 0 -2 -9 -17 -24 -29 -31 -32 -33 -33 -33 -33 -33 -33 -32
7 9 11 11 11 10 10 10 9 6 1 1 1 2 3 2 3 3 4 5 5 5 4 4 1 1 0 3 2 2 -2 -8 -18 -28 -31 -32 -32 -32 -33 -32 -32 -32 -33
11 11 11 12 11 11 10 10 10 7 -1 -0 -0 2 2 2 2 2 3 4 4 4 3 3 2 3 2 2 2 2 1 -4 -16 -27 -30 -31 -31 -32 -32 -32 -32 -32 -32
13 13 12 11 11 11 11 11 11 8 3 -3 -4 -3 2 2 2 2 2 3 3 3 2 2 1 2 2 2 2 2 2 -3 -12 -28 -30 -31 -32 -32 -32 -32 -32 -32 -31
12 12 12 12 12 11 12 11 11 11 7 1 -6 -4 -0 -1 1 1 2 1 2 1 0 -1 -0 0 1 1 1 -0 -6 -12 -17 -30 -31 -31 -31 -32 -32 -31 -32 -31 -31
12 12 12 12 12 12 12 12 12 11 11 4 0 -4 -4 -2 -0 0 0 1 1 1 0 -1 -1 -2 -2 -0 -0 -4 -22 -26 -26 -30 -31 -31 -31 -31 -31 -30 -30 -30 -30
11 12 12 12 12 11 12 12 12 12 11 7 5 -0 -3 0 -2 -0 0 0 1 1 0 -0 -2 -4 -5 -4 -4 -21 -26 -28 -29 -29 -30 -30 -30 -30 -30 -30 -29 -29 -29
7 7 8 11 11 11 11 11 11 11 11 8 6 3 -0 -0 -1 -1 -1 0 -0 -1 0 -0 -1 -3 -4 -6 -7 -21 -23 -25 -27 -28 -29 -29 -29 -29 -28 -28 -27 -27 -28
6 5 6 8 10 10 10 10 10 9 8 6 4 3 3 0 -2 -2 -2 -1 -0 -1 -0 -0 -1 -2 -4 -5 -6 -19 -21 -22 -25 -26 -27 -27 -27 -27 -27 -27 -27 -27 -27
4 4 4 7 7 9 9 9 9 8 8 8 5 2 2 2 0 -1 -1 -2 -1 0 0 -0 -1 -2 -3 -4 -7 -15 -17 -19 -20 -22 -22 -23 -25 -26 -26 -26 -26 -26 -26
2 2 2 3 4 5 7 7 7 7 7 7 6 4 3 3 1 3 1 -1 -4 -1 0 -0 -1 -2 -3 -4 -6 -12 -13 -13 -13 -14 -15 -17 -20 -22 -23 -25 -25 -25 -26
2 3 3 3 3 3 4 5 6 6 6 6 6 4 4 3 2 2 0 -2 -4 -3 -1 -1 -1 -3 -3 -3 -5 -6 -5 -10 -11 -11 -12 -13 -13 -15 -18 -21 -23 -24 -25
5 3 3 4 3 3 3 2 4 4 5 5 4 4 3 2 2 1 0 -0 -0 -2 -3 -2 -2 -2 -3 -4 -4 -3 -4 -9 -10 -11 -11 -11 -12 -12 -13 -15 -19 -21 -23
2 4 2 3 5 3 3 4 3 3 3 4 3 3 2 2 1 1 1 1 0 -1 -3 -3 -3 -2 -2 -4 -5 -3 -4 -7 -5 -10 -10 -11 -11 -12 -12 -13 -17 -20 -21
2 2 2 2 4 5 3 3 3 3 2 2 3 3 2 1 1 1 1 -0 -0 0 0 -1 -2 -3 -3 -4 -4 -4 -4 -5 -5 -7 -10 -10 -11 -11 -11 -12 -16 -19 -18
-1 -2 -1 0 2 5 4 3 2 3 2 2 1 1 1 1 0 1 -0 0 0 0 0 0 1 0 -1 -2 -2 -3 -5 -5 -6 -6 -9 -8 -6 -9 -11 -12 -15 -17 -14
-4 -4 -2 -3 -2 2 5 3 2 2 1 1 0 -0 1 1 0 -0 -0 -0 0 -0 -0 -0 -0 -1 -2 -3 -4 -4 -5 -6 -6 -6 -6 -5 -7 -11 -10 -13 -15 -12 -14
-5 -5 -3 -2 -4 -1 4 4 3 2 0 0 -0 0 -0 -1 -1 -1 -1 -0 -0 -0 -0 -1 -1 -1 -2 -3 -3 -4 -5 -6 -7 -7 -7 -9 -11 -11 -12 -13 -12 -13 -27
-5 -5 -3 -3 -6 -4 3 3 3 2 1 0 -0 -0 -0 -0 -1 -1 -1 -2 -2 -1 -1 -0 -1 -1 -2 -3 -3 -4 -5 -5 -6 -7 -8 -9 -10 -11 -12 -13 -12 -25 -30
-9 -5 -3 -3 -4 -4 2 3 2 2 1 1 0 -0 -0 -1 -1 -1 -2 -2 -3 -3 -3 -2 -2 -2 -2 -3 -3 -3 -5 -6 -6 -8 -9 -8 -8 -10 -11 -12 -23 -30 -32
-10 -5 -2 -3 -5 -6 2 3 2 1 0 -0 -0 -0 -0 -1 -1 -2 -2 -3 -3 -3 -4 -3 -3 -3 -3 -3 -4 -5 -6 -7 -8 -9 -9 -9 -9 -10 -15 -18 -14 -31 -33
-9 -9 -3 -2 -6 -7 1 2 2 1 0 -0 -1 -1 -1 -1 -2 -2 -2 -2 -3 -4 -4 -5 -5 -5 -5 -5 -6 -6 -7 -7 -7 -8 -9 -10 -11 -16 -13 -16 -20 -16 -18